TimeEST,TemperatureF,Dew PointF,Humidity,Sea Level PressureIn,VisibilityMPH,Wind Direction,Wind SpeedMPH,Gust SpeedMPH,PrecipitationIn,Events,Conditions,WindDirDegrees,DateUTC
12:54 AM,35.1,32.0,89,30.25,10.0,NNE,4.6,-,N/A,,Clear,30,2012-11-20 05:54:00
1:54 AM,36.0,32.0,86,30.24,10.0,NE,4.6,-,N/A,,Clear,40,2012-11-20 06:54:00
2:54 AM,34.0,32.0,92,30.23,10.0,North,3.5,-,N/A,,Clear,10,2012-11-20 07:54:00
3:54 AM,35.1,30.9,85,30.21,10.0,NNE,4.6,-,N/A,,Clear,20,2012-11-20 08:54:00
4:54 AM,34.0,30.9,89,30.21,10.0,North,3.5,-,N/A,,Clear,350,2012-11-20 09:54:00
5:54 AM,35.1,30.9,85,30.19,10.0,NNE,6.9,-,N/A,,Clear,20,2012-11-20 10:54:00
6:54 AM,33.8,30.2,87,30.17,10.0,North,5.8,-,N/A,,Clear,10,2012-11-20 11:54:00
7:54 AM,37.0,30.0,76,30.21,10.0,North,4.6,-,N/A,,Clear,10,2012-11-20 12:54:00
8:54 AM,39.0,30.0,70,30.20,10.0,NE,4.6,-,N/A,,Clear,40,2012-11-20 13:54:00
9:54 AM,42.1,30.0,62,30.20,10.0,NNE,6.9,-,N/A,,Clear,30,2012-11-20 14:54:00
10:54 AM,43.0,28.9,58,30.19,10.0,East,6.9,-,N/A,,Clear,80,2012-11-20 15:54:00
11:54 AM,44.1,28.0,53,30.17,10.0,Variable,5.8,-,N/A,,Clear,0,2012-11-20 16:54:00
12:54 PM,46.0,25.0,44,30.15,10.0,East,8.1,-,N/A,,Clear,90,2012-11-20 17:54:00
2:54 PM,46.9,26.1,44,30.14,10.0,East,3.5,-,N/A,,Clear,80,2012-11-20 19:54:00
3:54 PM,45.0,26.1,48,30.15,10.0,NE,3.5,-,N/A,,Clear,40,2012-11-20 20:54:00
4:54 PM,42.1,25.0,51,30.16,10.0,North,4.6,-,N/A,,Clear,360,2012-11-20 21:54:00
5:54 PM,41.0,25.0,53,30.17,10.0,North,4.6,-,N/A,,Clear,10,2012-11-20 22:54:00
6:54 PM,41.0,25.0,53,30.17,10.0,North,4.6,-,N/A,,Clear,10,2012-11-20 23:54:00
7:54 PM,41.0,25.0,53,30.16,10.0,NNE,6.9,-,N/A,,Clear,30,2012-11-21 00:54:00
8:54 PM,41.0,25.0,53,30.16,10.0,NNE,5.8,-,N/A,,Clear,30,2012-11-21 01:54:00
9:54 PM,39.0,25.0,57,30.17,10.0,NNE,3.5,-,N/A,,Clear,20,2012-11-21 02:54:00
10:54 PM,39.0,24.1,55,30.16,10.0,NE,5.8,-,N/A,,Clear,40,2012-11-21 03:54:00
11:54 PM,39.0,23.0,53,30.16,10.0,NNE,6.9,-,N/A,,Clear,30,2012-11-21 04:54:00